Albany, NY

7:07 PM EST on January 23, 2018 (GMT -0500)
Albany International

Weather History for KALB - February, 2013

Change the Weather History Date:

Saturday, February 2, 2013

  Actual Average Record
Temperature  
Mean Temperature 18 °F 23 °F  
Max Temperature 27 °F 32 °F 53 °F (1981)
Min Temperature 8 °F 15 °F -18 °F (1961)
Degree Days  
Heating Degree Days 47 42  
Month to date heating degree days 89 84  
Since 1 July heating degree days 3565 3935  
Cooling Degree Days 0 0  
Month to date cooling degree days 0 0  
Year to date cooling degree days 0 0  
Moisture  
Dew Point 8 °F    
Average Humidity 63    
Maximum Humidity 83    
Minimum Humidity 42    
Precipitation  
Precipitation T in 0.08 in 0.88 in (2015)
Month to date precipitation T 0.16  
Year to date precipitation 1.46 2.75  
Snow  
Snow T in 0.40 in 11.90 in (2015)
Month to date snowfall T 0.9  
Since 1 July snowfall 19.6 35.6  
Snow Depth 0.00 in    
Sea Level Pressure  
Sea Level Pressure 30.14 in    
Wind  
Wind Speed 7 mph (SW)    
Max Wind Speed 21 mph    
Max Gust Speed 28 mph    
Visibility 10 miles    
Events Snow    
T = Trace of Precipitation, MM = Missing Value Source: NWS Daily Summary

Daily Weather History Graph

Daily Weather History Graph

Search for Another Location

Airport or City:

Trip Planner

Search our weather history database for the weather conditions in past years. The results will help you decide how hot, cold, wet, or windy it might be!

Date:

Astronomy

Feb. 02, 2013 Rise Set
Actual Time 7:08 AM EST 5:10 PM EST
Civil Twilight 6:38 AM EST 5:40 PM EST
Nautical Twilight 6:04 AM EST 6:13 PM EST
Astronomical Twilight 5:31 AM EST 6:46 PM EST
Moon No Moon Rise 10:06 AM EST (2/2)
Length of Visible Light 11h 01m
Length of Day
10h 01m
Waning Gibbous, 60% of the Moon is Illuminated
Feb 2
Waning Gibbous
Feb 3
Last Quarter
Feb 10
New
Feb 17
First Quarter
Feb 25
Full

Hourly Weather History & Observations

Time (EST) Temp. Windchill Dew Point Humidity Pressure Visibility Wind Dir Wind Speed Gust Speed Precip Events Conditions
12:51 AM 16.0 °F 4.4 °F 3.9 °F 59% 30.19 in 10.0 mi WNW 9.2 mph - N/A   Scattered Clouds
1:51 AM 16.0 °F 1.7 °F 3.0 °F 57% 30.22 in 10.0 mi WNW 13.8 mph 18.4 mph N/A   Partly Cloudy
2:51 AM 16.0 °F 5.3 °F 3.0 °F 57% 30.23 in 10.0 mi WNW 8.1 mph - N/A   Scattered Clouds
3:51 AM 12.9 °F - 1.9 °F 62% 30.23 in 10.0 mi Calm Calm - N/A   Scattered Clouds
4:51 AM 12.9 °F - 3.0 °F 65% 30.23 in 10.0 mi Calm Calm - N/A   Scattered Clouds
5:51 AM 10.9 °F 4.7 °F 3.9 °F 73% 30.23 in 10.0 mi South 3.5 mph - N/A   Clear
6:51 AM 10.0 °F - 3.9 °F 76% 30.23 in 10.0 mi Calm Calm - N/A   Partly Cloudy
7:51 AM 10.9 °F - 7.0 °F 84% 30.24 in 10.0 mi Calm Calm - N/A   Scattered Clouds
8:51 AM 17.1 °F 7.6 °F 7.0 °F 65% 30.24 in 10.0 mi South 6.9 mph - N/A   Scattered Clouds
9:51 AM 19.0 °F 7.5 °F 9.0 °F 65% 30.22 in 10.0 mi South 10.4 mph - N/A   Mostly Cloudy
10:51 AM 21.9 °F 11.7 °F 10.0 °F 60% 30.19 in 10.0 mi South 9.2 mph - N/A   Mostly Cloudy
11:51 AM 25.0 °F 14.8 °F 9.0 °F 51% 30.14 in 10.0 mi South 10.4 mph - N/A   Mostly Cloudy
12:51 PM 25.0 °F 13.6 °F 8.1 °F 49% 30.10 in 10.0 mi South 12.7 mph 18.4 mph N/A   Mostly Cloudy
1:51 PM 26.1 °F 16.2 °F 6.1 °F 43% 30.07 in 10.0 mi SSE 10.4 mph - N/A   Overcast
2:51 PM 26.1 °F 15.6 °F 7.0 °F 44% 30.05 in 10.0 mi South 11.5 mph - 0.00 in Snow Light Snow
3:51 PM 26.1 °F 16.2 °F 6.1 °F 43% 30.04 in 10.0 mi SSW 10.4 mph 17.3 mph 0.00 in Snow Light Snow
4:51 PM 26.1 °F 14.5 °F 6.1 °F 43% 30.04 in 10.0 mi SSW 13.8 mph - 0.00 in   Overcast
5:51 PM 24.1 °F 14.4 °F 12.9 °F 62% 30.05 in 10.0 mi NNW 9.2 mph - N/A   Overcast
6:51 PM 21.9 °F 13.4 °F 12.9 °F 68% 30.06 in 10.0 mi NW 6.9 mph - N/A   Overcast
7:51 PM 21.2 °F - 12.2 °F 68% 30.05 in 10.0 mi Calm Calm - N/A   Overcast
8:51 PM 19.9 °F 12.1 °F 12.0 °F 71% 30.08 in 10.0 mi NW 5.8 mph - N/A   Mostly Cloudy
9:51 PM 19.9 °F 14.9 °F 12.0 °F 71% 30.08 in 10.0 mi WSW 3.5 mph - N/A   Overcast
10:51 PM 21.0 °F - 12.0 °F 68% 30.07 in 10.0 mi Calm Calm - N/A   Overcast
11:51 PM 19.9 °F 14.9 °F 12.9 °F 74% 30.06 in 10.0 mi ESE 3.5 mph - N/A   Overcast